period_start,C,m1,H,J0,J1,J2,J3,J4,J5,JA,JB,JC,JD,JJ,JK,JN,#
2014-03-30 00:00:55,0.19,4.88,0.00,10.59,15.73,18.94,6.42,33.67,1012.26,2081.00,2011.48,2243.03,2446.13,350.84,337.49,27.63,0000 0000 0000 0000 000000
2014-03-30 00:01:56,0.19,4.88,0.00,10.60,15.73,18.96,6.30,33.54,1012.26,2081.00,2011.18,2242.98,2446.05,350.01,336.48,27.63,0000 0000 0000 0000 000000
2014-03-30 00:02:56,0.12,4.88,0.00,10.60,15.73,18.94,6.23,33.21,1012.27,2081.00,2011.05,2242.85,2445.99,349.53,336.15,27.64,0000 0000 0000 0000 000000
2014-03-30 00:03:56,0.11,4.88,0.00,10.61,15.73,18.91,6.32,33.50,1012.33,2081.01,2010.78,2242.49,2445.80,349.53,336.42,27.64,0000 0000 0000 0000 000000
2014-03-30 00:04:56,0.31,4.88,0.00,10.61,15.72,18.91,6.25,33.38,1012.33,2081.00,2010.35,2242.21,2445.41,350.25,336.92,27.65,0000 0000 0000 0000 000000
2014-03-30 00:05:57,0.28,4.88,0.00,10.61,15.72,18.95,6.43,33.33,1012.36,2081.01,2010.12,2242.07,2445.17,349.63,336.56,27.66,0000 0000 0000 0000 000000
2014-03-30 00:06:57,0.16,4.89,0.00,10.61,15.72,18.93,6.23,33.50,1012.38,2081.00,2010.00,2242.01,2445.05,349.23,336.05,27.66,0000 0000 0000 0000 000000
2014-03-30 00:07:57,0.07,4.89,0.00,10.63,15.72,18.91,6.30,33.50,1012.40,2081.00,2009.66,2241.95,2445.00,349.35,336.32,27.67,0000 0000 0000 0000 000000
2014-03-30 00:08:57,0.18,4.89,0.00,10.64,15.72,18.93,6.37,33.50,1012.35,2081.00,2009.27,2241.73,2444.86,350.13,336.79,27.67,0000 0000 0000 0000 000000
2014-03-30 00:09:58,0.28,4.89,0.00,10.64,15.72,18.93,6.16,33.71,1012.40,2081.01,2009.09,2241.34,2444.48,349.95,336.64,27.68,0000 0000 0000 0000 000000
2014-03-30 00:10:58,0.25,4.89,0.00,10.64,15.72,18.92,6.40,33.58,1012.39,2081.00,2009.01,2241.14,2444.21,350.83,337.61,27.69,0000 0000 0000 0000 000000
2014-03-30 00:11:58,0.15,4.89,0.00,10.64,15.72,18.93,6.32,33.54,1012.38,2081.01,2008.87,2241.05,2444.08,350.00,336.67,27.69,0000 0000 0000 0000 000000
2014-03-30 00:12:58,0.12,4.89,0.00,10.64,15.72,18.94,6.46,33.71,1012.41,2081.01,2008.42,2241.01,2444.02,350.16,336.83,27.70,0000 0000 0000 0000 000000
2014-03-30 00:13:58,0.15,4.89,0.00,10.65,15.72,18.92,6.40,33.58,1012.42,2081.01,2008.16,2240.94,2443.95,350.04,336.85,27.70,0000 0000 0000 0000 000000
2014-03-30 00:14:59,0.13,4.89,0.00,10.66,15.72,18.94,6.13,33.46,1012.46,2081.00,2008.04,2240.65,2443.61,349.07,335.77,27.71,0000 0000 0000 0000 000000
2014-03-30 00:15:59,0.26,4.90,0.00,10.66,15.72,18.97,6.21,33.38,1012.43,2081.01,2007.92,2240.26,2443.27,349.38,336.05,27.71,0000 0000 0000 0000 000000
2014-03-30 00:16:59,0.24,4.90,0.00,10.67,15.72,18.97,6.26,33.38,1012.37,2081.00,2007.56,2240.10,2443.12,349.04,335.70,27.72,0000 0000 0000 0000 000000
2014-03-30 00:17:59,0.21,4.90,0.00,10.69,15.72,18.98,6.10,33.50,1012.37,2081.00,2007.20,2240.03,2443.04,348.94,335.59,27.73,0000 0000 0000 0000 000000
2014-03-30 00:18:59,0.13,4.90,0.00,10.69,15.72,19.01,6.43,33.67,1012.38,2081.02,2007.07,2240.01,2443.01,351.03,337.60,27.73,0000 0000 0000 0000 000000
2014-03-30 00:19:59,0.07,4.90,0.00,10.69,15.72,18.98,6.17,33.63,1012.37,2081.03,2006.93,2239.97,2442.78,349.91,336.52,27.74,0000 0000 0000 0000 000000
2014-03-30 00:20:59,0.14,4.90,0.00,10.69,15.72,18.95,6.24,33.38,1012.41,2081.03,2006.46,2239.63,2442.33,350.22,336.94,27.74,0000 0000 0000 0000 000000
2014-03-30 00:22:00,0.39,4.90,0.00,10.70,15.72,18.98,6.27,33.63,1012.41,2081.04,2006.17,2239.27,2442.13,350.15,337.05,27.75,0000 0000 0000 0000 000000
2014-03-30 00:23:00,0.26,4.90,0.00,10.71,15.72,19.01,6.27,33.42,1012.38,2081.03,2006.04,2239.09,2442.05,349.92,336.50,27.76,0000 0000 0000 0000 000000
2014-03-30 00:24:00,0.10,4.90,0.00,10.72,15.72,18.99,6.27,33.79,1012.41,2081.03,2005.78,2239.03,2442.01,349.84,336.43,27.76,0000 0000 0000 0000 000000
2014-03-30 00:25:00,0.13,4.90,0.00,10.73,15.72,19.00,6.34,33.67,1012.45,2081.02,2005.34,2239.01,2441.80,350.11,336.75,27.77,0000 0000 0000 0000 000000
2014-03-30 00:26:01,0.17,4.91,0.00,10.73,15.72,19.01,6.28,33.50,1012.42,2081.00,2005.12,2238.96,2441.36,349.98,336.73,27.77,0000 0000 0000 0000 000000
2014-03-30 00:27:01,0.16,4.91,0.00,10.74,15.72,18.99,6.40,33.58,1012.42,2081.00,2005.01,2238.68,2441.14,350.87,337.40,27.78,0000 0000 0000 0000 000000
2014-03-30 00:28:01,0.18,4.91,0.00,10.74,15.72,18.98,6.27,33.54,1012.46,2081.01,2004.63,2238.34,2441.04,350.32,336.88,27.78,0000 0000 0000 0000 000000
2014-03-30 00:29:01,0.30,4.91,0.00,10.74,15.72,18.98,6.38,33.63,1012.46,2081.01,2004.29,2238.13,2440.96,349.74,336.10,27.79,0000 0000 0000 0000 000000
2014-03-30 00:30:02,0.19,4.91,0.00,10.73,15.72,19.01,6.38,33.71,1012.47,2081.00,2004.11,2238.05,2440.77,349.94,336.53,27.80,0000 0000 0000 0000 000000
2014-03-30 00:31:02,0.14,4.91,0.00,10.74,15.72,19.00,6.38,33.67,1012.59,2081.01,2003.98,2238.01,2440.34,349.73,336.36,27.80,0000 0000 0000 0000 000000
2014-03-30 00:32:02,0.13,4.91,0.00,10.74,15.72,19.02,6.28,33.75,1012.60,2081.02,2003.60,2237.88,2440.13,349.85,336.41,27.81,0000 0000 0000 0000 000000
2014-03-30 00:33:03,0.26,4.91,0.00,10.75,15.72,19.02,6.26,33.46,1012.59,2081.03,2003.22,2237.46,2440.05,350.19,336.47,27.81,0000 0000 0000 0000 000000
2014-03-30 00:34:03,0.27,4.92,0.00,10.76,15.72,19.04,6.27,33.58,1012.55,2081.02,2003.07,2237.17,2440.01,349.33,335.94,27.82,0000 0000 0000 0000 000000
2014-03-30 00:35:03,0.15,4.92,0.00,10.76,15.72,19.01,6.18,33.42,1012.57,2081.00,2002.94,2237.06,2439.82,349.77,336.37,27.83,0000 0000 0000 0000 000000
2014-03-30 00:36:03,0.11,4.92,0.00,10.76,15.72,19.05,6.34,33.63,1012.57,2081.01,2002.54,2237.01,2439.38,350.37,336.93,27.83,0000 0000 0000 0000 000000
2014-03-30 00:37:04,0.24,4.92,0.00,10.76,15.72,19.03,6.23,33.38,1012.57,2081.02,2002.21,2236.95,2439.15,349.81,336.39,27.84,0000 0000 0000 0000 000000
2014-03-30 00:38:04,0.19,4.92,0.00,10.78,15.72,19.05,6.40,33.42,1012.57,2081.05,2002.05,2236.57,2439.05,350.15,336.71,27.84,0000 0000 0000 0000 000000
2014-03-30 00:39:04,0.25,4.92,0.00,10.78,15.72,19.03,6.25,33.33,1012.58,2081.03,2001.80,2236.26,2438.98,349.31,335.91,27.85,0000 0000 0000 0000 000000
2014-03-30 00:40:05,0.19,4.92,0.00,10.79,15.72,19.05,6.47,33.75,1012.60,2081.02,2001.32,2236.09,2438.64,350.82,337.35,27.86,0000 0000 0000 0000 000000
2014-03-30 00:41:05,0.27,4.92,0.00,10.79,15.72,19.05,6.27,33.71,1012.57,2081.02,2001.11,2236.03,2438.27,349.51,336.08,27.86,0000 0000 0000 0000 000000
2014-03-30 00:42:05,0.18,4.93,0.00,10.79,15.72,19.06,6.29,33.50,1012.62,2081.02,2001.01,2235.98,2438.10,349.84,336.41,27.87,0000 0000 0000 0000 000000
2014-03-30 00:43:05,0.06,4.93,0.00,10.79,15.72,19.04,6.12,33.63,1012.62,2081.06,2000.68,2235.75,2438.03,348.98,335.91,27.87,0000 0000 0000 0000 000000
2014-03-30 00:44:06,0.31,4.93,0.00,10.80,15.72,19.05,6.25,33.42,1012.64,2081.03,2000.26,2235.34,2437.96,350.04,336.78,27.88,0000 0000 0000 0000 000000
2014-03-30 00:45:06,0.26,4.93,0.00,10.81,15.72,19.07,6.29,33.54,1012.67,2081.04,2000.09,2235.12,2437.65,350.07,336.68,27.88,0000 0000 0000 0000 000000
2014-03-30 00:46:06,0.21,4.93,0.00,10.81,15.72,19.07,6.36,33.63,1012.63,2081.02,1999.93,2235.04,2437.25,350.15,336.71,27.89,0000 0000 0000 0000 000000
2014-03-30 00:47:06,0.15,4.93,0.00,10.81,15.72,19.06,6.28,33.42,1012.61,2081.04,1999.51,2234.97,2437.09,350.08,336.95,27.90,0000 0000 0000 0000 000000
2014-03-30 00:48:06,0.22,4.93,0.00,10.82,15.72,19.10,6.32,33.63,1012.59,2081.03,1999.19,2234.74,2437.01,351.21,337.29,27.90,0000 0000 0000 0000 000000
2014-03-30 00:49:07,0.21,4.93,0.00,10.82,15.72,19.09,6.23,33.46,1012.59,2081.01,1999.05,2234.32,2436.94,350.25,336.77,27.91,0000 0000 0000 0000 000000
2014-03-30 00:50:07,0.18,4.93,0.00,10.83,15.72,19.10,6.38,33.58,1012.62,2081.01,1998.74,2234.12,2436.53,350.92,337.46,27.91,0000 0000 0000 0000 000000
2014-03-30 00:51:07,0.29,4.94,0.00,10.84,15.72,19.09,6.15,33.38,1012.58,2081.04,1998.29,2234.04,2436.21,349.73,336.30,27.92,0000 0000 0000 0000 000000
2014-03-30 00:52:07,0.25,4.94,0.00,10.84,15.72,19.11,6.29,33.38,1012.64,2081.05,1998.10,2234.01,2436.07,349.72,336.24,27.93,0000 0000 0000 0000 000000
2014-03-30 00:53:07,0.11,4.94,0.00,10.84,15.72,19.09,6.20,33.58,1012.64,2081.06,1997.96,2233.75,2436.01,349.18,336.26,27.93,0000 0000 0000 0000 000000
2014-03-30 00:54:08,0.17,4.94,0.00,10.84,15.72,19.08,6.39,33.67,1012.64,2081.04,1997.47,2233.36,2435.70,350.23,336.74,27.94,0000 0000 0000 0000 000000
2014-03-30 00:55:08,0.40,4.94,0.00,10.84,15.72,19.07,6.32,33.46,1012.62,2081.01,1997.17,2233.13,2435.30,349.88,336.39,27.94,0000 0000 0000 0000 000000
2014-03-30 00:56:08,0.21,4.94,0.00,10.86,15.73,19.06,6.26,33.46,1012.65,2081.01,1997.03,2233.04,2435.10,349.90,336.61,27.95,0000 0000 0000 0000 000000
2014-03-30 00:57:08,0.09,4.94,0.00,10.86,15.73,19.07,6.22,33.33,1012.65,2081.02,1996.64,2232.98,2435.03,349.53,336.16,27.95,0000 0000 0000 0000 000000
2014-03-30 00:58:08,0.18,4.94,0.00,10.86,15.73,19.09,6.34,33.33,1012.69,2081.03,1996.23,2232.67,2434.93,350.74,337.31,27.96,0000 0000 0000 0000 000000
2014-03-30 00:59:09,0.28,4.95,0.00,10.87,15.74,19.07,6.14,33.50,1012.67,2081.01,1996.07,2232.29,2434.57,349.19,335.50,27.97,0000 0000 0000 0000 000000
2014-03-30 01:00:09,0.28,4.95,0.00,10.88,15.74,19.10,6.27,33.42,1012.65,2081.02,1995.96,2232.11,2434.25,350.35,336.98,27.97,0000 0000 0000 0000 000000
2014-03-30 01:01:09,0.17,4.95,0.00,10.89,15.74,19.07,6.27,33.33,1012.65,2081.04,1995.54,2232.04,2434.09,349.68,336.15,27.98,0000 0000 0000 0000 000000
2014-03-30 01:02:09,0.22,4.95,0.00,10.89,15.74,19.08,6.15,33.50,1012.63,2081.08,1995.21,2232.01,2434.03,349.44,335.92,27.98,0000 0000 0000 0000 000000
2014-03-30 01:03:09,0.15,4.95,0.00,10.89,15.74,19.12,6.36,33.54,1012.64,2081.09,1995.07,2231.96,2433.99,349.72,336.19,27.99,0000 0000 0000 0000 000000
2014-03-30 01:04:10,0.05,4.95,0.00,10.89,15.74,19.13,6.19,33.67,1012.65,2081.09,1995.00,2231.69,2433.73,349.27,335.75,28.00,0000 0000 0000 0000 000000
2014-03-30 01:05:10,0.23,4.95,0.00,10.89,15.74,19.11,6.33,33.42,1012.63,2081.08,1994.62,2231.29,2433.33,350.26,336.65,28.00,0000 0000 0000 0000 000000
2014-03-30 01:06:10,0.37,4.96,0.00,10.90,15.74,19.13,6.43,33.67,1012.66,2081.04,1994.24,2231.11,2433.12,350.54,336.98,28.01,0000 0000 0000 0000 000000
2014-03-30 01:07:10,0.17,4.96,0.00,10.91,15.74,19.08,6.24,33.58,1012.68,2081.02,1994.08,2231.04,2433.04,349.52,335.98,28.01,0000 0000 0000 0000 000000
2014-03-30 01:08:11,0.06,4.96,0.00,10.92,15.74,19.13,6.29,33.63,1012.68,2081.02,1993.99,2230.99,2432.99,350.23,336.81,28.02,0000 0000 0000 0000 000000
2014-03-30 01:09:11,0.05,4.96,0.00,10.92,15.74,19.13,6.42,33.63,1012.69,2081.02,1993.63,2230.68,2432.68,350.79,337.20,28.03,0000 0000 0000 0000 000000
2014-03-30 01:10:11,0.35,4.96,0.00,10.92,15.74,19.12,6.28,33.50,1012.70,2081.01,1993.25,2230.31,2432.30,349.88,336.34,28.03,0000 0000 0000 0000 000000
2014-03-30 01:11:11,0.32,4.96,0.00,10.92,15.74,19.11,6.19,33.54,1012.70,2081.02,1993.07,2230.11,2432.12,350.04,336.48,28.04,0000 0000 0000 0000 000000
2014-03-30 01:12:12,0.17,4.96,0.00,10.94,15.74,19.11,6.31,33.46,1012.70,2081.02,1992.81,2230.03,2432.03,350.13,336.74,28.04,0000 0000 0000 0000 000000
2014-03-30 01:13:12,0.11,4.96,0.00,10.94,15.75,19.13,6.35,33.58,1012.69,2081.02,1992.36,2229.98,2432.00,350.07,336.49,28.05,0000 0000 0000 0000 000000
2014-03-30 01:14:12,0.18,4.96,0.00,10.94,15.76,19.12,6.24,33.42,1012.68,2081.03,1992.13,2229.84,2431.88,350.02,336.47,28.05,0000 0000 0000 0000 000000
2014-03-30 01:15:13,0.18,4.96,0.00,10.94,15.76,19.15,6.32,33.46,1012.69,2081.03,1992.02,2229.47,2431.50,349.87,336.29,28.06,0000 0000 0000 0000 000000
2014-03-30 01:16:13,0.26,4.97,0.00,10.95,15.77,19.16,6.33,33.63,1012.68,2081.02,1991.89,2229.18,2431.20,349.00,335.35,28.07,0000 0000 0000 0000 000000
2014-03-30 01:17:13,0.18,4.97,0.00,10.96,15.77,19.12,6.12,33.42,1012.68,2081.01,1991.44,2229.06,2431.07,349.24,335.66,28.07,0000 0000 0000 0000 000000
2014-03-30 01:18:13,0.22,4.97,0.00,10.96,15.77,19.14,6.26,33.50,1012.68,2081.01,1991.18,2229.02,2431.02,350.09,336.47,28.08,0000 0000 0000 0000 000000
2014-03-30 01:19:13,0.11,4.97,0.00,10.97,15.77,19.16,6.44,33.54,1012.69,2081.01,1991.06,2228.98,2430.92,350.52,336.88,28.08,0000 0000 0000 0000 000000
2014-03-30 01:20:14,0.08,4.97,0.00,10.98,15.77,19.17,6.35,33.46,1012.68,2081.01,1990.98,2228.80,2430.59,350.19,336.55,28.09,0000 0000 0000 0000 000000
2014-03-30 01:21:14,0.13,4.97,0.00,10.99,15.77,19.21,6.23,33.38,1012.69,2081.03,1990.64,2228.40,2430.24,349.49,335.87,28.10,0000 0000 0000 0000 000000
2014-03-30 01:22:14,0.40,4.97,0.00,10.99,15.77,19.18,6.33,33.54,1012.67,2081.02,1990.25,2228.15,2430.08,350.12,336.46,28.10,0000 0000 0000 0000 000000
2014-03-30 01:23:14,0.24,4.97,0.00,11.01,15.77,19.15,6.29,33.17,1012.66,2081.02,1990.08,2228.05,2430.03,349.85,336.19,28.11,0000 0000 0000 0000 000000
2014-03-30 01:24:15,0.09,4.98,0.00,11.01,15.78,19.17,6.27,33.46,1012.62,2081.03,1990.00,2228.00,2429.99,349.49,335.81,28.11,0000 0000 0000 0000 000000
2014-03-30 01:25:15,0.07,4.98,0.00,11.02,15.79,19.18,6.30,33.63,1012.63,2081.01,1989.65,2227.90,2429.69,350.15,336.44,28.12,0000 0000 0000 0000 000000
2014-03-30 01:26:15,0.18,4.98,0.00,11.02,15.79,19.18,6.27,33.46,1012.61,2081.00,1989.25,2227.54,2429.28,349.87,336.17,28.12,0000 0000 0000 0000 000000
2014-03-30 01:27:16,0.34,4.98,0.00,11.02,15.79,19.18,6.24,33.50,1012.61,2081.01,1989.09,2227.22,2429.11,349.58,335.52,28.13,0000 0000 0000 0000 000000
2014-03-30 01:28:16,0.19,4.98,0.00,11.04,15.79,19.18,6.28,33.38,1012.65,2081.03,1988.98,2227.08,2429.03,349.56,336.46,28.14,0000 0000 0000 0000 000000
2014-03-30 01:29:16,0.13,4.98,0.00,11.04,15.79,19.19,6.27,33.33,1012.61,2081.02,1988.60,2227.01,2428.94,350.05,336.36,28.14,0000 0000 0000 0000 000000
2014-03-30 01:30:16,0.17,4.98,0.00,11.04,15.79,19.19,6.20,33.58,1012.62,2081.02,1988.22,2226.90,2428.59,350.21,336.44,28.15,0000 0000 0000 0000 000000
2014-03-30 01:31:16,0.25,4.98,0.00,11.05,15.79,19.22,6.12,33.75,1012.61,2081.01,1988.08,2226.51,2428.22,349.61,335.96,28.15,0000 0000 0000 0000 000000
2014-03-30 01:32:17,0.27,4.98,0.00,11.06,15.80,19.20,6.23,33.63,1012.59,2081.01,1987.83,2226.19,2428.08,350.32,336.78,28.16,0000 0000 0000 0000 000000
2014-03-30 01:33:17,0.21,4.99,0.00,11.07,15.80,19.19,6.35,33.71,1012.60,2081.01,1987.40,2226.07,2428.03,350.61,336.53,28.17,0000 0000 0000 0000 000000
2014-03-30 01:34:17,0.19,4.99,0.00,11.07,15.81,19.20,6.31,33.50,1012.58,2081.00,1987.15,2226.01,2427.93,349.80,336.03,28.17,0000 0000 0000 0000 000000
2014-03-30 01:35:18,0.12,4.99,0.00,11.08,15.81,19.21,6.23,33.50,1012.59,2081.01,1987.03,2225.95,2427.51,350.22,335.93,28.18,0000 0000 0000 0000 000000
2014-03-30 01:36:18,0.17,4.99,0.00,11.09,15.82,19.19,6.32,33.54,1012.64,2081.01,1986.83,2225.69,2427.20,350.01,336.38,28.18,0000 0000 0000 0000 000000
2014-03-30 01:37:18,0.23,4.99,0.00,11.08,15.82,19.23,6.26,33.46,1012.64,2081.01,1986.38,2225.30,2427.07,350.18,336.39,28.19,0000 0000 0000 0000 000000
2014-03-30 01:38:18,0.32,4.99,0.00,11.09,15.82,19.24,6.20,33.54,1012.63,2081.00,1986.15,2225.11,2427.02,349.63,335.86,28.19,0000 0000 0000 0000 000000
2014-03-30 01:39:18,0.15,4.99,0.00,11.09,15.82,19.24,6.17,33.54,1012.68,2081.00,1985.97,2225.04,2426.79,350.43,336.67,28.20,0000 0000 0000 0000 000000
2014-03-30 01:40:18,0.14,4.99,0.00,11.09,15.82,19.22,6.19,33.29,1012.66,2081.00,1985.81,2224.99,2426.44,350.00,336.22,28.21,0000 0000 0000 0000 000000
2014-03-30 01:41:19,0.15,4.99,0.00,11.09,15.82,19.25,6.29,33.29,1012.65,2081.01,1985.37,2224.74,2426.17,349.40,335.65,28.21,0000 0000 0000 0000 000000
2014-03-30 01:42:19,0.31,5.00,0.00,11.10,15.83,19.25,6.39,33.58,1012.61,2081.00,1985.10,2224.30,2426.05,350.17,336.37,28.22,0000 0000 0000 0000 000000
2014-03-30 01:43:19,0.26,5.00,0.00,11.11,15.84,19.27,6.28,33.33,1012.66,2081.00,1984.96,2224.11,2425.94,350.88,336.69,28.22,0000 0000 0000 0000 000000
2014-03-30 01:44:20,0.14,5.00,0.00,11.11,15.84,19.26,6.21,33.46,1012.67,2081.00,1984.51,2224.04,2425.68,349.82,336.05,28.23,0000 0000 0000 0000 000000
2014-03-30 01:45:20,0.23,5.00,0.00,11.12,15.84,19.26,6.27,33.63,1012.68,2081.01,1984.18,2223.95,2425.28,349.18,335.62,28.24,0000 0000 0000 0000 000000
2014-03-30 01:46:20,0.24,5.00,0.00,11.13,15.84,19.29,6.42,33.50,1012.70,2081.01,1984.06,2223.65,2425.10,349.48,335.69,28.24,0000 0000 0000 0000 000000
2014-03-30 01:47:20,0.19,5.00,0.00,11.13,15.84,19.27,6.32,33.42,1012.70,2081.00,1983.97,2223.29,2425.03,349.97,336.16,28.25,0000 0000 0000 0000 000000
2014-03-30 01:48:20,0.17,5.00,0.00,11.14,15.84,19.29,6.14,33.54,1012.70,2081.00,1983.63,2223.11,2424.95,348.32,334.57,28.25,0000 0000 0000 0000 000000
2014-03-30 01:49:21,0.18,5.01,0.00,11.14,15.84,19.29,6.40,33.79,1012.71,2081.00,1983.27,2223.04,2424.62,350.89,336.95,28.26,0000 0000 0000 0000 000000
2014-03-30 01:50:21,0.23,5.01,0.00,11.14,15.85,19.28,6.31,33.67,1012.71,2081.00,1983.10,2222.97,2424.25,349.39,335.70,28.26,0000 0000 0000 0000 000000
2014-03-30 01:51:21,0.16,5.01,0.00,11.16,15.86,19.29,6.27,33.46,1012.71,2081.00,1983.03,2222.93,2424.10,349.79,335.96,28.27,0000 0000 0000 0000 000000
2014-03-30 01:52:21,0.10,5.01,0.00,11.16,15.87,19.26,6.25,33.33,1012.71,2081.00,1982.82,2222.59,2424.03,350.08,336.24,28.28,0000 0000 0000 0000 000000
2014-03-30 01:53:22,0.20,5.01,0.00,11.16,15.87,19.28,6.19,33.33,1012.71,2081.00,1982.40,2222.24,2423.99,349.07,335.26,28.28,0000 0000 0000 0000 000000
2014-03-30 01:54:22,0.29,5.01,0.00,11.16,15.87,19.25,6.38,33.38,1012.71,2081.00,1982.14,2222.08,2423.75,350.28,336.69,28.29,0000 0000 0000 0000 000000
2014-03-30 01:55:22,0.19,5.01,0.00,11.17,15.87,19.25,6.25,33.63,1012.71,2081.00,1982.01,2222.02,2423.33,350.62,336.75,28.29,0000 0000 0000 0000 000000
2014-03-30 01:56:22,0.15,5.01,0.00,11.19,15.87,19.28,6.33,33.42,1012.71,2081.00,1981.88,2221.99,2423.12,349.97,336.10,28.30,0000 0000 0000 0000 000000
2014-03-30 01:57:23,0.10,5.01,0.00,11.19,15.87,19.28,6.18,33.29,1012.71,2081.00,1981.43,2221.71,2423.03,349.69,335.83,28.31,0000 0000 0000 0000 000000
2014-03-30 01:58:23,0.25,5.02,0.00,11.19,15.89,19.27,6.23,33.46,1012.71,2081.00,1981.16,2221.30,2422.91,349.47,335.95,28.31,0000 0000 0000 0000 000000
2014-03-30 01:59:23,0.30,5.02,0.00,11.19,15.89,19.29,6.16,33.29,1012.71,2081.00,1981.04,2221.11,2422.56,350.13,336.24,28.32,0000 0000 0000 0000 000000
2014-03-30 02:00:23,0.18,5.02,0.00,11.21,15.89,19.32,6.33,33.50,1012.71,2081.00,1980.74,2221.03,2422.23,349.43,335.55,28.32,0000 0000 0000 0000 000000
2014-03-30 02:01:24,0.19,5.02,0.00,11.21,15.89,19.34,6.30,33.54,1012.71,2081.00,1980.29,2220.99,2422.08,349.85,335.96,28.33,0000 0000 0000 0000 000000
2014-03-30 02:02:24,0.21,5.02,0.00,11.22,15.89,19.31,6.07,33.33,1012.71,2081.00,1980.09,2220.75,2422.02,349.49,335.61,28.34,0000 0000 0000 0000 000000
2014-03-30 02:03:24,0.15,5.02,0.00,11.24,15.89,19.32,6.23,33.33,1012.71,2081.00,1979.99,2220.35,2421.92,349.61,335.69,28.34,0000 0000 0000 0000 000000
2014-03-30 02:04:24,0.24,5.02,0.00,11.24,15.90,19.31,6.27,33.33,1012.71,2081.00,1979.65,2220.13,2421.52,350.09,336.16,28.35,0000 0000 0000 0000 000000
2014-03-30 02:05:24,0.26,5.02,0.00,11.24,15.91,19.31,6.38,33.42,1012.71,2081.00,1979.27,2220.05,2421.21,350.43,336.48,28.35,0000 0000 0000 0000 000000
2014-03-30 02:06:25,0.24,5.03,0.00,11.24,15.92,19.32,6.18,33.42,1012.71,2081.00,1979.10,2220.00,2421.07,349.16,335.54,28.36,0000 0000 0000 0000 000000
2014-03-30 02:07:25,0.11,5.03,0.00,11.25,15.92,19.34,6.14,33.46,1012.71,2081.00,1978.92,2219.75,2420.99,349.54,335.62,28.36,0000 0000 0000 0000 000000
2014-03-30 02:08:25,0.14,5.03,0.00,11.26,15.92,19.35,6.18,33.67,1012.71,2081.00,1978.49,2219.31,2420.74,349.55,335.61,28.37,0000 0000 0000 0000 000000
2014-03-30 02:09:25,0.38,5.03,0.00,11.27,15.92,19.33,6.20,33.38,1012.71,2081.00,1978.20,2219.11,2420.37,350.13,336.00,28.38,0000 0000 0000 0000 000000
2014-03-30 02:10:25,0.23,5.03,0.00,11.27,15.92,19.32,6.25,33.29,1012.71,2081.00,1978.06,2219.03,2420.13,350.26,336.28,28.38,0000 0000 0000 0000 000000
2014-03-30 02:11:26,0.12,5.03,0.00,11.29,15.93,19.35,6.34,33.33,1012.71,2081.00,1977.93,2219.00,2420.05,349.51,335.21,28.39,0000 0000 0000 0000 000000
2014-03-30 02:12:26,0.11,5.03,0.00,11.30,15.94,19.33,6.42,33.33,1012.71,2080.99,1977.48,2218.82,2420.01,350.36,335.94,28.39,0000 0000 0000 0000 000000
2014-03-30 02:13:26,0.22,5.03,0.00,11.31,15.94,19.32,6.28,33.33,1012.71,2080.98,1977.18,2218.41,2419.78,349.92,335.79,28.40,0000 0000 0000 0000 000000
2014-03-30 02:14:26,0.29,5.04,0.00,11.31,15.94,19.32,6.35,33.46,1012.71,2080.99,1977.05,2218.15,2419.36,349.80,335.52,28.41,0000 0000 0000 0000 000000
2014-03-30 02:15:27,0.26,5.04,0.00,11.32,15.94,19.34,6.33,33.42,1012.71,2080.99,1976.57,2218.05,2419.13,350.01,336.06,28.41,0000 0000 0000 0000 000000
2014-03-30 02:16:27,0.21,5.04,0.00,11.33,15.94,19.36,6.30,33.38,1012.72,2080.98,1976.21,2218.00,2419.04,349.92,336.19,28.42,0000 0000 0000 0000 000000
2014-03-30 02:17:27,0.15,5.04,0.00,11.34,15.95,19.36,6.37,33.42,1012.71,2080.96,1976.07,2217.75,2418.92,350.07,335.82,28.42,0000 0000 0000 0000 000000
2014-03-30 02:18:28,0.17,5.04,0.00,11.34,15.97,19.38,6.23,33.17,1012.71,2080.94,1975.88,2217.32,2418.47,350.50,336.00,28.43,0000 0000 0000 0000 000000
2014-03-30 02:19:28,0.28,5.04,0.00,11.35,15.97,19.39,6.34,33.54,1012.71,2080.94,1975.44,2217.11,2418.18,349.76,335.37,28.43,0000 0000 0000 0000 000000
2014-03-30 02:20:28,0.28,5.04,0.00,11.36,15.97,19.36,6.29,33.46,1012.71,2080.96,1975.17,2217.03,2418.06,350.23,336.14,28.44,0000 0000 0000 0000 000000
2014-03-30 02:21:29,0.18,5.04,0.00,11.37,15.97,19.34,6.22,33.38,1012.71,2080.97,1974.82,2216.91,2417.94,349.84,335.77,28.45,0000 0000 0000 0000 000000
2014-03-30 02:22:29,0.21,5.05,0.00,11.39,15.98,19.32,6.28,33.54,1012.72,2080.96,1974.49,2216.53,2417.56,350.45,336.33,28.45,0000 0000 0000 0000 000000
2014-03-30 02:23:29,0.30,5.05,0.00,11.39,15.99,19.34,6.31,33.46,1012.72,2080.98,1974.25,2216.22,2417.24,350.45,336.32,28.46,0000 0000 0000 0000 000000
2014-03-30 02:24:29,0.29,5.05,0.00,11.40,15.99,19.36,6.25,33.42,1012.71,2080.98,1974.10,2216.08,2417.08,350.13,336.01,28.46,0000 0000 0000 0000 000000
2014-03-30 02:25:30,0.13,5.05,0.00,11.41,15.99,19.31,6.27,33.54,1012.73,2080.93,1973.91,2215.99,2417.00,349.91,335.43,28.47,0000 0000 0000 0000 000000
2014-03-30 02:26:30,0.04,5.05,0.00,11.42,15.99,19.35,6.27,33.58,1012.73,2080.90,1973.81,2215.93,2416.87,350.48,336.39,28.48,0000 0000 0000 0000 000000
2014-03-30 02:27:30,0.12,5.05,0.00,11.42,16.00,19.34,6.19,33.42,1012.72,2080.91,1973.39,2215.53,2416.42,349.54,335.14,28.48,0000 0000 0000 0000 000000
2014-03-30 02:28:30,0.35,5.05,0.00,11.44,16.01,19.36,6.38,33.33,1012.71,2080.93,1973.14,2215.23,2416.16,350.32,336.15,28.49,0000 0000 0000 0000 000000
2014-03-30 02:29:31,0.28,5.06,0.00,11.44,16.02,19.32,6.23,33.46,1012.73,2080.92,1972.92,2215.08,2416.04,349.14,335.11,28.49,0000 0000 0000 0000 000000
2014-03-30 02:30:31,0.12,5.06,0.00,11.46,16.02,19.33,6.22,33.63,1012.73,2080.87,1972.56,2215.02,2415.95,349.70,335.15,28.50,0000 0000 0000 0000 000000
2014-03-30 02:31:31,0.09,5.06,0.00,11.46,16.02,19.38,6.31,33.63,1012.73,2080.63,1972.22,2214.80,2415.55,350.66,336.35,28.51,0000 0000 0000 0000 000000
2014-03-30 02:32:31,0.10,5.06,0.00,11.48,16.02,19.42,6.25,33.54,1012.74,2080.44,1972.07,2214.37,2415.21,349.92,336.07,28.51,0000 0000 0000 0000 000000
2014-03-30 02:33:32,0.13,5.06,0.00,11.49,16.04,19.42,6.36,33.50,1012.76,2080.47,1971.96,2214.14,2415.07,350.18,336.27,28.52,0000 0000 0000 0000 000000
2014-03-30 02:34:32,0.18,5.06,0.00,11.49,16.04,19.35,6.40,33.50,1012.73,2080.51,1971.63,2214.05,2415.00,349.96,335.46,28.52,0000 0000 0000 0000 000000
2014-03-30 02:35:32,0.18,5.06,0.00,11.49,16.04,19.40,6.27,33.63,1012.74,2080.54,1971.27,2214.01,2414.86,349.86,335.65,28.53,0000 0000 0000 0000 000000
2014-03-30 02:36:33,0.18,5.06,0.00,11.50,16.04,19.35,6.37,33.63,1012.78,2080.45,1971.09,2213.85,2414.46,350.44,336.70,28.53,0000 0000 0000 0000 000000